Location: Marcé
(47.5801°N, 0.3280°W)
Time: 21:06:38
(UTC+01:00)

Explorer 7 - Pass Details

Date: 03 December 2021
Orbit: 483 x 674 km, 50.3° (Epoch: 17 January)

Event Time Altitude Azimuth Distance (km) Brightness Sun altitude
Rises 07:46:17 0° 241° (WSW) 2,801 10.1 -7.4°
Reaches altitude 10° 07:48:37 10° 240° (WSW) 1,869 9.2 -7.1°
Maximum altitude 07:52:51 73° 156° (SSE) 573 7.1 -6.4°
Drops below altitude 10° 07:56:50 10° 72° (ENE) 1,762 10.1 -5.8°
Sets 07:59:00 0° 70° (ENE) 2,626 11.0 -5.5°
